CAPE
1838 915 733 957 1438 2319 2279 1466 1614 1578 2108 2303 2138 2175 1792 1894 1493 898 609 348 266 278 138 14 114 509 529 491 385 194 705 599 464 559 493 1384 1759 1188 1851 1598 1250 1066 1067 776 702 547 367 200 90 53 18 24 0 0 25 272 253 28 1 6 5 19 17 15 9 5 2 2 2 2 0 1 5 7 5 2 9 59 251 298 388 408 435 469 436
1746 1323 1180 1150 1900 2277 2281 1904 2155 2423 2357 2787 2821 2500 2447 2373 1859 1230 792 991 820 727 746 329 91 32 33 365 458 406 196 434 751 802 532 1016 1376 1622 1800 1376 1300 1038 1000 937 832 682 567 294 135 109 54 32 16 0 0 116 153 8 5 2 4 7 18 18 8 5 1 4 6 5 3 0 1 8 4 0 7 10 150 262 330 357 325 336 388
1474 1339 1641 1741 2040 1602 1854 1776 1838 2832 2364 2085 2289 2202 2350 2017 1708 1693 1768 1510 1707 1386 982 829 594 349 368 126 169 461 432 255 774 822 838 948 1486 1618 1169 1726 1181 1160 1079 1010 840 862 798 508 242 220 222 198 98 36 7 1 2 6 6 7 8 8 11 10 9 7 4 4 9 9 8 7 4 5 4 1 8 8 77 203 222 238 260 255 252
2114 1376 1248 1208 1317 1384 1773 2073 2219 2367 2314 1944 1863 1923 1934 1623 1626 1809 1731 2007 1789 1476 1385 1086 662 409 381 350 314 321 512 982 339 514 1025 1061 1058 1698 1425 1061 1411 1268 1197 926 946 892 928 796 510 405 374 233 222 131 56 3 6 1 4 7 8 7 6 11 9 8 4 4 7 11 12 12 9 8 2 4 8 6 54 129 172 207 158 218 192
2404 1916 1519 1281 1608 2446 2244 2093 2232 2207 2169 2139 2001 2042 1905 1766 2062 2104 2113 2037 1928 1691 1651 1518 1294 916 812 472 500 454 464 924 588 629 631 1105 1296 2306 1716 1517 997 1151 1151 1111 815 882 976 993 786 732 691 371 268 225 186 88 63 4 5 6 6 7 8 9 9 10 6 5 6 14 16 11 16 13 7 9 8 9 21 87 110 128 166 162 114
2006 1800 1974 1988 2082 2182 2278 2287 2415 2191 2382 2777 2399 2320 2164 1998 1911 1837 1907 1759 1528 1694 1637 1485 1269 1276 1149 954 797 750 618 577 625 690 1114 1055 1099 1208 1920 1686 1428 1214 1084 1129 984 816 888 1157 1202 964 769 598 362 316 286 234 174 62 23 10 3 6 8 7 5 10 11 7 10 12 12 18 19 17 13 11 11 6 13 40 67 75 117 126 85
2284 2299 1849 1930 1950 2028 2012 2364 2343 1984 2153 2617 2549 2180 1935 2001 1756 1788 1713 1744 1708 1692 1581 1574 1444 1381 1078 1633 1301 1290 1305 1113 810 832 963 1035 819 635 698 680 1577 1608 1198 860 1020 957 884 956 1137 1042 804 684 543 419 368 474 394 179 93 40 5 5 7 6 4 8 13 10 10 14 14 22 22 20 15 16 11 6 1 24 26 46 79 53 103
2046 2175 2430 2315 1637 2191 2239 2556 2260 2242 2309 2176 2003 1658 1610 1716 1606 1434 1528 1258 1114 1003 1151 1532 1558 1503 1453 1756 1541 1322 1392 1372 1311 1097 1074 1125 1026 903 887 361 523 1131 1340 904 746 717 897 799 822 856 954 875 803 556 579 563 501 385 187 92 5 5 7 5 3 9 13 10 18 16 15 22 24 25 21 14 11 5 3 4 27 36 45 40 64
2192 2319 2263 2314 2356 2266 2356 1974 2259 2072 2223 2536 1890 1702 1697 1566 1628 1580 1407 1278 1156 1187 1230 1210 1153 1212 1541 1658 1570 1634 1604 1404 1414 1511 1618 1406 1205 893 752 668 543 699 1409 1179 1178 1086 907 931 870 784 794 909 985 839 682 741 666 395 294 123 56 10 8 7 6 14 12 12 19 19 20 25 24 27 18 18 11 7 3 6 18 38 44 36 35
2238 2152 2393 2291 2160 1907 1992 2345 2128 2522 2354 2102 1814 1520 1558 1477 1660 1631 1403 1537 1380 1316 1374 1369 1414 1438 1420 1519 1547 1649 1693 1739 1493 1177 1254 1477 1304 1330 1130 1117 443 276 788 1437 1299 1167 986 843 950 840 818 671 625 974 812 776 746 595 274 265 141 20 10 13 12 15 16 16 21 24 21 23 24 23 20 18 16 10 7 6 22 29 38 35 23
1682 2417 2657 2275 2116 1562 2102 1823 2308 2247 1615 1480 1912 1383 1627 1518 1615 1419 1575 1425 1246 1245 1324 1361 1590 1437 1340 1371 1330 1371 1625 1864 1613 1402 1445 1490 1532 1184 1040 944 717 682 478 1718 1229 1209 942 810 852 670 530 545 689 947 1004 870 800 603 348 345 180 59 11 15 23 19 22 19 24 28 24 25 24 22 22 20 18 14 5 10 30 29 33 28 22
2167 1760 2458 2084 1939 1980 2268 2095 2127 2278 2232 1834 1687 1420 1529 1419 1453 1378 1363 1414 1530 1421 1415 1400 1438 1388 1271 1429 1612 1678 1649 1697 1763 1642 1727 1574 1466 1476 1351 1371 1148 790 580 973 383 1187 978 928 1002 742 636 559 486 659 776 907 856 865 324 215 224 90 13 12 15 28 27 20 27 26 31 28 28 26 21 23 21 15 9 12 39 33 24 26 22
1911 2264 2179 2229 2487 2310 2189 2247 1936 1506 1746 1683 1520 1412 1401 1600 1762 1694 1383 1338 1380 1340 1479 1510 1381 1215 1285 1178 1194 1430 1696 1743 1745 1871 1912 1679 1469 1418 1385 1386 1548 1046 923 710 1025 1052 743 666 550 570 564 494 486 600 543 599 797 949 599 276 140 137 95 11 10 19 30 19 25 33 35 33 30 28 24 25 26 19 14 13 25 24 22 21 23
1595 1660 1661 1612 1641 1607 1530 1644 1478 1381 1690 1510 1377 1378 1404 1354 1427 1510 1503 1257 1268 1410 1545 1236 1199 1028 1020 980 848 1034 1501 2076 2017 1954 1470 1642 1622 1359 1237 1239 1572 1387 1113 852 730 969 491 793 567 719 695 707 565 454 395 369 427 721 898 654 350 72 132 32 11 13 21 37 26 34 34 37 32 27 27 27 27 23 20 20 18 20 18 22 23
832 892 1033 1030 1175 1122 1327 1466 1253 1162 1333 1326 1196 1310 1246 1240 1223 1493 1357 1227 1248 1355 1328 1284 1033 1018 1060 1043 766 632 1512 2120 1920 2039 2050 1576 1411 1289 1212 1473 1509 1372 1455 1434 1221 828 782 795 725 789 668 567 495 503 423 420 313 276 585 600 301 12 75 51 18 11 12 23 24 34 36 35 34 31 30 30 28 26 24 22 13 20 15 17 17
495 397 532 692 731 730 878 934 932 939 928 889 840 906 1057 1084 994 1023 1075 966 977 1114 1138 1331 1174 743 761 752 714 746 639 1399 792 850 1196 1954 1686 1560 1607 1648 1456 1404 1065 720 942 1302 1282 951 772 838 624 638 688 592 574 486 418 299 277 123 51 92 34 105 68 10 10 19 28 30 47 34 31 34 31 30 35 37 32 26 20 17 13 18 20
380 294 353 481 648 658 679 650 747 812 764 688 712 721 751 620 757 848 906 947 786 930 1041 1107 1256 1440 726 739 746 645 797 672 793 612 2206 1776 1830 2005 1878 1774 1583 1356 1152 945 1052 1253 1592 1293 1101 845 700 704 699 669 661 464 373 368 330 255 88 30 81 54 58 10 14 11 28 48 64 34 30 42 35 41 42 39 33 26 23 17 15 18 22
100 80 122 156 319 292 275 257 301 377 326 532 492 335 214 221 301 390 589 772 826 796 857 901 934 1175 1379 693 750 590 671 682 652 621 592 615 1049 2011 1943 1745 1393 1365 1354 1220 1184 1260 1687 1637 1224 941 976 916 763 771 705 582 737 398 296 244 211 94 54 51 32 18 44 24 18 101 110 57 30 36 35 33 30 32 31 30 25 19 18 16 23
71 22 16 6 37 11 4 2 42 40 59 71 78 96 24 47 73 120 245 272 378 486 569 658 654 846 881 1084 1234 855 766 676 663 648 624 644 667 908 1611 1843 1598 1440 1292 1308 1240 1403 1739 1696 1368 990 973 1017 775 635 397 514 753 673 555 331 238 207 101 66 50 50 154 74 13 95 58 64 55 22 20 27 32 25 22 24 28 24 19 16 20
11 4 8 10 5 0 0 0 0 1 3 1 0 1 1 0 6 40 92 102 139 152 119 105 155 318 307 419 483 600 823 784 834 684 550 472 603 622 946 1359 1664 1418 1421 1434 1287 1367 1610 1642 1363 1142 1106 993 757 611 588 517 482 510 451 321 262 299 222 86 60 26 82 104 22 74 144 98 85 11 8 10 26 22 19 22 24 26 24 19 17
3 1 0 0 1 2 5 4 2 0 0 0 0 0 1 0 0 0 6 18 14 7 3 2 4 20 12 14 30 129 180 302 573 656 549 359 425 544 535 563 1191 1562 1590 1517 1232 1117 1364 1374 1236 1071 929 866 748 595 491 562 472 446 443 416 378 398 296 132 52 43 9 59 195 34 203 154 163 53 4 2 20 20 22 24 23 26 26 22 23
7 7 10 5 8 2 2 4 4 0 0 0 0 0 1 0 0 0 6 3 4 1 0 0 1 4 6 6 5 2 0 0 13 31 82 317 437 406 372 395 444 366 1297 1860 1747 1751 1572 1485 1552 1115 970 885 835 897 711 646 717 663 629 497 513 543 408 169 78 63 45 6 10 190 152 411 48 62 27 4 17 14 9 14 21 24 32 32 30
14 13 11 9 9 7 5 4 3 4 1 0 0 1 0 0 4 2 1 1 0 0 0 0 6 9 10 9 8 10 12 9 6 4 7 20 18 66 138 261 229 256 364 480 1272 1955 1686 1491 1650 1277 1042 879 970 870 809 753 683 609 622 582 513 566 401 248 154 76 58 36 7 6 128 123 271 76 98 14 15 20 26 20 18 17 26 32 23
12 5 6 6 8 6 3 2 1 0 0 0 0 0 0 0 0 0 0 0 0 0 0 4 2 4 5 6 8 11 9 11 10 16 18 17 20 16 15 15 16 48 74 198 365 419 331 616 1405 1327 1206 1154 1125 1166 854 1004 927 724 626 561 527 489 446 361 214 117 77 82 52 3 9 115 190 122 62 29 20 41 36 16 13 18 24 29 25
2 4 5 5 5 1 1 0 0 0 0 0 0 0 0 2 0 0 1 0 0 3 7 8 12 8 9 12 13 11 13 19 24 18 16 10 14 14 7 6 12 1 0 1 88 171 144 59 152 1462 1548 1359 1217 1123 976 948 1134 875 671 548 537 556 517 369 264 186 114 106 86 39 1 89 205 127 129 134 21 94 128 6 4 1 2 4 21
5 6 3 1 1 0 0 0 0 0 0 0 0 0 0 0 1 0 1 1 2 5 10 11 15 16 15 17 15 16 20 19 12 9 7 9 11 15 19 9 5 1 0 0 1 5 27 71 92 86 1004 1246 1270 1177 961 858 907 1019 935 741 561 452 397 340 336 326 244 185 124 82 15 1 85 210 128 108 5 41 25 0 0 0 0 0 0
4 2 2 0 2 0 0 0 0 0 0 0 0 0 2 0 0 1 2 0 1 7 7 8 11 14 15 13 12 13 13 23 22 23 22 24 27 28 28 23 3 1 0 0 0 0 0 0 29 80 199 741 700 468 461 437 615 877 1098 940 670 506 465 441 481 477 441 339 234 31 25 5 0 0 31 118 81 24 3 0 0 0 0 0 0
2 0 0 0 0 0 0 0 0 0 0 0 0 0 2 0 0 1 0 0 0 3 7 6 13 11 12 11 13 10 20 15 15 20 22 31 30 32 31 27 29 8 2 2 0 0 0 0 0 0 47 177 296 495 267 320 674 820 1077 1081 841 660 545 496 479 482 471 406 306 188 126 39 1 0 0 57 28 0 2 0 0 0 0 0 0
1 1 0 0 0 1 0 0 0 0 0 0 0 0 0 0 0 0 0 0 6 7 4 9 16 18 18 15 16 21 13 12 17 17 11 9 8 1 2 4 6 16 14 7 8 2 0 0 2 0 0 0 27 338 781 598 398 432 656 938 981 760 625 536 503 462 452 438 389 331 260 60 26 0 0 0 62 39 8 3 0 0 0 0 0
2 1 0 0 0 0 0 0 0 0 0 0 0 0 0 0 1 0 0 3 3 7 11 10 19 17 19 14 10 9 4 3 15 21 20 13 3 0 0 0 3 8 13 18 11 9 11 4 1 0 0 0 0 0 120 499 643 568 402 670 841 825 744 617 543 516 492 467 421 370 354 236 55 28 8 1 36 59 34 26 0 0 0 0 0
1 0 0 0 0 0 0 0 0 0 0 0 0 0 0 0 0 0 0 0 2 6 7 7 11 9 9 10 14 12 14 15 14 12 12 7 5 3 3 2 3 7 11 12 16 0 2 2 0 0 0 0 0 0 0 72 380 655 719 708 556 810 918 740 624 542 488 427 379 352 334 274 125 19 26 11 0 67 39 33 8 0 0 0 0
0 0 0 0 0 0 0 0 0 0 0 0 0 0 1 1 0 0 0 0 0 3 4 9 8 8 7 8 12 11 11 13 11 10 7 7 6 5 5 4 3 4 8 6 5 3 0 3 2 0 0 0 0 0 0 0 0 30 664 682 624 794 960 811 718 623 555 479 419 373 350 296 186 130 12 14 0 20 48 28 25 12 0 0 0
0 0 0 0 0 0 0 0 0 0 0 0 0 0 0 0 2 1 1 0 0 2 1 2 4 6 5 7 9 9 10 10 9 7 6 4 4 6 6 6 4 5 6 6 4 4 0 0 3 0 0 0 0 0 0 0 2 205 618 746 764 754 785 728 635 572 522 476 442 390 334 318 294 252 108 19 4 0 0 24 1 13 20 33 0
0 0 0 0 0 0 0 0 0 0 0 0 0 0 0 0 1 2 1 0 0 0 0 0 0 1 3 4 5 9 12 8 9 6 4 4 5 5 5 6 4 4 7 5 4 6 4 1 1 2 0 0 0 0 0 0 0 0 14 733 861 919 687 662 631 509 424 396 393 406 380 333 320 312 225 126 23 5 0 2 0 0 3 28 0
0 0 0 0 0 0 0 0 0 0 0 0 0 0 0 0 0 1 0 1 0 0 0 0 0 1 0 3 4 7 9 8 8 6 6 3 4 2 1 3 4 6 6 6 7 5 4 4 3 5 4 0 0 0 0 0 0 0 0 68 513 710 669 665 680 608 532 442 373 357 336 327 335 330 288 267 160 4 5 0 26 25 14 0 14
0 0 0 0 0 0 0 0 0 0 0 0 0 0 0 0 0 0 0 0 0 0 0 0 0 0 1 2 4 6 7 8 7 4 1 3 2 2 2 2 3 5 6 7 7 6 6 6 1 5 5 6 1 0 0 0 1 0 1 19 336 679 700 702 562 592 593 503 432 359 314 292 292 319 312 246 179 56 10 4 6 38 1 0 0
0 0 0 0 0 0 0 0 0 0 0 0 0 0 0 0 0 0 0 0 0 0 0 0 0 0 1 2 4 4 6 7 3 3 4 2 2 2 2 3 5 6 7 6 6 6 7 6 6 4 8 6 8 6 1 2 2 1 0 0 11 341 746 840 580 652 611 526 463 386 309 277 248 244 256 244 212 111 14 13 4 10 23 0 46
0 0 0 0 0 0 0 0 0 0 0 0 0 0 0 0 0 0 0 0 0 0 0 0 0 0 0 0 4 6 5 4 3 4 4 3 1 2 2 3 3 4 5 3 3 6 8 4 8 8 5 11 12 12 4 5 8 7 1 0 7 46 262 481 723 724 585 520 445 376 324 267 223 197 179 183 187 151 85 21 9 1 10 38 27
0 0 0 0 0 0 0 0 0 0 0 0 0 0 0 0 0 1 0 0 0 0 0 0 0 0 0 1 1 2 2 0 0 3 4 1 2 2 2 1 4 4 6 1 4 8 14 14 8 14 17 15 17 10 2 4 7 9 9 13 8 0 2 17 168 524 559 474 384 339 278 262 236 196 169 162 139 126 117 80 6 7 15 27 58
0 0 0 0 0 0 0 0 0 0 0 0 0 0 0 0 0 0 0 0 0 0 0 0 0 0 0 0 0 0 0 0 0 0 0 0 2 1 0 2 2 2 1 3 5 6 9 7 10 17 10 8 7 10 13 9 9 6 8 18 23 15 6 8 36 211 452 502 303 322 83 270 215 182 163 140 120 115 103 44 6 6 30 23 44
0 0 0 0 0 0 0 0 0 0 0 0 0 0 0 0 0 0 0 0 0 0 0 0 0 0 0 0 0 1 0 2 0 0 0 1 1 0 0 0 0 2 2 1 12 4 2 7 7 5 5 6 1 3 8 9 10 12 18 21 25 34 42 16 1 3 128 300 331 309 219 252 180 164 158 119 91 107 98 48 6 9 22 43 51
0 0 0 0 0 0 0 0 0 0 0 0 0 0 0 0 0 0 0 0 0 0 0 0 0 0 0 0 0 2 0 0 0 0 0 0 0 0 0 1 0 0 2 2 6 4 4 6 5 5 6 6 6 5 8 8 8 8 15 26 30 19 18 11 2 1 16 387 382 372 272 104 166 146 131 115 120 113 107 67 28 12 19 21 28
0 0 0 0 0 0 0 0 0 0 0 0 0 0 0 0 0 0 0 0 0 0 0 0 0 0 0 0 0 1 0 0 0 0 0 0 0 0 0 0 1 0 1 5 11 9 7 7 5 6 6 6 5 7 7 7 1 14 18 23 25 21 17 16 8 0 1 304 505 448 350 264 207 174 110 47 39 158 135 68 67 42 15 20 18
0 1 0 0 0 0 0 0 0 0 0 0 0 0 0 0 0 0 0 0 0 0 0 0 0 0 0 0 0 0 0 0 0 0 0 0 0 0 0 0 0 1 2 1 1 4 8 9 8 6 6 6 8 6 10 9 9 6 5 7 13 18 15 15 13 14 2 11 211 486 454 313 250 220 172 139 83 187 182 122 97 79 48 20 32
0 0 0 0 0 0 0 0 0 0 0 0 0 0 0 0 0 0 0 0 0 0 0 0 0 0 0 0 0 0 0 0 0 0 0 0 0 0 0 0 2 3 1 0 0 0 4 7 11 6 5 8 9 7 10 11 4 8 4 6 7 16 20 15 10 9 2 3 39 193 410 425 286 232 170 4 139 191 278 224 162 115 74 48 33
0 1 2 0 0 0 0 0 0 0 0 0 0 0 0 0 0 0 0 0 0 0 0 0 0 0 0 0 0 0 0 0 0 0 0 0 0 0 0 0 1 2 0 0 0 0 0 2 2 5 3 6 13 9 8 2 3 5 3 5 5 8 12 10 3 0 0 1 8 23 318 376 259 244 133 6 4 107 135 168 165 148 145 81 43
0 0 0 0 0 0 0 0 0 0 0 0 0 0 0 0 0 0 0 0 0 0 0 0 0 0 0 0 0 0 0 0 0 0 0 0 0 0 0 0 0 0 0 0 0 0 0 0 0 0 1 3 7 4 6 6 6 9 8 4 4 4 8 0 1 2 4 0 8 15 34 187 324 68 0 0 35 78 108 102 78 89 100 111 78
0 0 0 1 0 0 0 0 0 0 0 0 0 0 0 0 0 0 0 0 0 0 0 0 0 0 0 0 0 0 0 0 0 0 0 0 0 0 0 0 0 0 0 0 0 0 0 0 0 0 0 0 0 0 0 0 3 5 2 3 1 21 23 12 5 0 0 0 8 10 18 55 292 143 0 62 96 98 89 73 69 73 80 100 107
0 0 0 0 0 0 0 0 0 0 0 0 0 0 0 0 0 0 0 0 0 0 0 0 0 0 0 0 0 0 0 0 0 0 0 0 0 0 0 0 0 0 0 0 0 0 0 0 0 0 0 0 0 0 0 0 0 0 7 13 15 9 5 2 8 18 19 6 72 107 106 336 316 234 229 158 114 76 66 48 46 54 74 105 100
0 0 0 0 0 0 0 0 0 0 0 0 0 0 0 0 0 0 0 0 0 0 0 0 0 0 0 0 0 0 0 0 0 0 0 0 0 0 0 0 0 0 0 0 0 0 0 0 0 0 0 0 2 0 0 0 0 1 7 0 32 14 5 6 2 6 1 71 110 232 321 372 272 179 120 76 88 58 41 38 21 29 54 84 108
0 0 0 0 0 0 0 0 0 0 0 0 0 0 0 0 0 0 0 0 0 0 0 0 0 0 0 0 0 0 0 0 0 0 0 0 0 0 0 0 0 0 0 0 0 0 0 0 0 0 0 1 6 7 10 2 0 5 7 4 35 12 5 6 7 3 6 87 16 164 137 406 254 230 178 144 8 20 51 49 31 33 42 70 98
Wind_Speed
17 14 5 5 5 6 7 6 7 10 8 6 8 9 10 11 10 9 10 13 15 18 19 nan 18 20 22 19 16 14 19 21 20 18 17 25 24 26 28 29 29 28 30 29 24 21 19 19 nan nan nan nan nan nan nan 9 12 nan nan nan nan nan nan nan nan nan nan nan nan nan nan nan nan nan nan nan nan nan 11 12 13 13 14 15 16
16 13 10 5 6 5 6 5 7 11 10 9 8 10 10 11 12 13 13 14 15 14 15 18 nan nan nan 22 22 20 17 20 22 22 22 25 25 27 31 30 31 29 28 28 27 22 18 19 18 15 nan nan nan nan nan 10 10 nan nan nan nan nan nan nan nan nan nan nan nan nan nan nan nan nan nan nan nan nan 11 12 13 13 14 15 15
16 12 8 6 5 4 5 5 4 6 8 8 9 10 11 12 13 14 14 13 14 14 16 18 17 16 17 17 21 24 22 19 18 20 23 23 26 25 28 31 31 31 29 27 28 23 17 17 19 18 17 15 nan nan nan nan nan nan nan nan nan nan nan nan nan nan nan nan nan nan nan nan nan nan nan nan nan nan nan 11 12 14 15 15 16
15 12 9 8 5 4 5 7 6 8 8 9 10 10 11 11 13 14 15 14 14 14 14 14 16 17 18 17 16 19 22 23 23 20 20 24 24 26 25 26 29 31 30 29 28 24 16 14 17 18 17 14 13 13 nan nan nan nan nan nan nan nan nan nan nan nan nan nan nan nan nan nan nan nan nan nan nan nan nan 11 12 14 14 15 16
11 12 12 10 7 6 5 6 8 10 10 9 10 12 12 12 13 13 14 14 15 16 15 15 16 16 17 18 18 17 18 22 24 23 23 24 24 25 25 25 25 29 30 28 29 26 17 11 14 15 15 14 14 14 15 nan nan nan nan nan nan nan nan nan nan nan nan nan nan nan nan nan nan nan nan nan nan nan nan nan 12 13 14 15 16
12 10 11 10 9 9 8 7 8 9 9 11 11 11 11 11 12 13 14 15 15 16 17 16 17 18 18 17 19 18 19 19 22 25 25 25 23 24 26 26 25 24 25 28 28 26 19 14 13 14 14 14 14 14 13 13 13 nan nan nan nan nan nan nan nan nan nan nan nan nan nan nan nan nan nan nan nan nan nan nan nan nan 13 14 nan
12 12 9 8 9 8 8 7 9 9 10 12 11 12 12 11 12 12 13 13 15 15 16 17 17 16 16 19 19 19 19 19 19 20 24 28 27 23 25 23 25 25 25 24 25 26 23 19 16 15 14 14 13 13 14 13 12 13 nan nan nan nan nan nan nan nan nan nan nan nan nan nan nan nan nan nan nan nan nan nan nan nan nan nan 14
12 12 11 8 8 9 9 8 10 9 11 11 11 11 12 13 13 14 13 13 14 14 16 17 18 16 18 18 19 20 21 21 22 21 21 22 24 24 27 25 20 23 26 26 24 23 25 22 20 18 17 15 11 12 14 13 13 13 13 nan nan nan nan nan nan nan nan nan nan nan nan nan nan nan nan nan nan nan nan nan nan nan nan nan nan
11 13 13 9 8 9 10 10 10 11 10 12 11 12 12 12 13 14 14 14 14 13 15 15 15 17 19 20 21 21 22 21 22 22 21 22 23 23 23 26 24 17 21 25 24 23 24 25 22 21 20 19 15 13 14 13 12 12 13 13 nan nan nan nan nan nan nan nan nan nan nan nan nan nan nan nan nan nan nan nan nan nan nan nan nan
10 12 14 9 9 12 11 11 11 12 11 10 10 10 13 14 13 14 14 15 15 15 14 15 16 16 17 18 19 21 22 22 22 21 22 21 20 22 23 22 27 26 22 24 25 25 23 24 24 21 20 20 19 16 14 13 12 11 10 16 16 nan nan nan nan nan nan nan nan nan nan nan nan nan nan nan nan nan nan nan nan nan nan nan nan
8 12 11 11 13 15 10 12 12 12 14 11 11 12 14 14 13 14 15 15 14 16 15 15 16 15 15 17 19 19 21 23 23 23 23 22 22 22 23 22 22 25 21 23 24 23 23 21 21 20 20 21 20 19 15 14 13 11 13 17 15 nan nan nan nan nan nan nan nan nan nan nan nan nan nan nan nan nan nan nan nan nan nan nan nan
12 11 9 10 12 10 12 12 12 13 14 14 13 13 14 14 15 13 13 15 15 15 16 14 15 15 16 17 18 19 21 22 22 21 22 21 20 21 21 22 23 24 24 24 24 21 20 20 20 22 22 22 21 20 19 17 15 14 12 14 15 nan nan nan nan nan nan nan nan nan nan nan nan nan nan nan nan nan nan nan nan nan nan nan nan
10 11 10 11 9 10 11 11 11 11 13 13 13 14 15 16 16 15 14 14 16 16 17 17 14 15 17 17 17 18 18 22 22 22 23 22 21 21 21 21 23 24 24 25 23 28 20 18 22 22 23 23 22 21 21 20 19 16 13 12 13 13 nan nan nan nan nan nan nan nan nan nan nan nan nan nan nan nan nan nan nan nan nan nan nan
11 12 12 11 10 10 10 11 10 12 12 12 13 14 14 16 17 16 15 14 15 17 17 18 17 15 13 14 15 17 18 22 23 22 22 22 22 22 21 21 22 24 23 24 26 32 26 22 22 21 23 24 23 23 21 20 21 20 16 14 14 nan 14 nan nan nan nan nan nan nan nan nan nan nan nan nan nan nan nan nan nan nan nan nan nan
11 12 12 12 10 10 10 11 12 13 12 12 13 15 16 15 16 18 16 17 16 17 18 22 18 16 15 16 17 15 19 22 21 20 21 21 21 21 21 22 22 23 25 24 26 26 31 29 29 26 23 22 23 20 20 23 23 23 21 19 17 nan nan nan nan nan nan nan nan nan nan nan nan nan nan nan nan nan nan nan nan nan nan nan nan
13 13 12 12 10 11 11 11 13 13 13 13 13 14 14 15 16 16 16 16 16 16 17 20 23 20 19 19 17 19 16 22 17 17 19 22 21 20 21 21 22 22 23 24 24 26 28 28 28 27 23 21 22 25 20 22 23 23 24 24 nan nan nan 14 nan nan nan nan nan nan nan nan nan nan nan nan nan nan nan nan nan nan nan nan nan
13 13 12 11 11 12 11 12 13 13 13 14 14 14 14 15 16 16 17 17 16 16 17 18 21 24 23 20 20 22 22 18 15 14 23 22 20 21 22 22 22 23 23 23 24 25 27 27 28 28 27 26 25 27 24 21 23 23 24 25 nan nan nan nan nan nan nan nan nan nan nan nan nan nan nan nan nan nan nan nan nan nan nan nan nan
13 nan 13 12 13 13 13 13 14 13 13 14 16 16 16 16 17 17 16 18 17 17 17 17 18 20 26 28 26 22 18 19 20 18 20 18 18 22 23 23 23 22 22 22 23 23 25 26 26 27 28 29 28 27 25 22 22 23 25 27 30 nan nan nan nan nan nan nan nan 13 14 nan nan nan nan nan nan nan nan nan nan nan nan nan nan
nan nan nan nan nan nan nan nan nan nan nan nan nan nan nan nan nan 18 18 18 18 18 18 17 18 21 21 21 24 25 23 21 22 18 14 20 23 19 21 24 24 24 23 23 23 23 25 25 25 25 26 29 29 29 27 24 22 22 22 27 31 32 31 nan nan nan 15 nan nan nan nan nan nan nan nan nan nan nan nan nan nan nan nan nan nan
nan nan nan nan nan nan nan nan nan nan nan nan nan nan nan nan nan nan nan 21 20 21 20 20 19 19 21 20 19 20 23 23 24 22 19 15 13 21 22 22 26 25 25 25 24 24 24 26 27 27 26 27 29 29 29 26 25 25 23 25 31 33 35 nan nan nan nan 13 nan nan 12 nan nan nan nan nan nan nan nan nan nan nan nan nan nan
nan nan nan nan nan nan nan nan nan nan nan nan nan nan nan nan nan nan nan nan nan nan nan nan nan nan nan nan nan 21 21 22 22 25 22 18 17 18 17 20 23 25 26 27 27 26 25 26 28 28 28 26 27 28 30 29 27 26 26 26 30 32 33 30 nan nan nan nan 11 nan 12 13 16 nan nan nan nan nan nan nan nan nan nan nan nan
nan nan nan nan nan nan nan nan nan nan nan nan nan nan nan nan nan nan nan nan nan nan nan nan nan nan nan nan nan nan nan nan nan nan nan 22 20 18 18 17 17 22 25 26 27 27 27 27 29 30 29 28 27 27 29 29 27 26 26 27 26 29 30 30 nan nan nan nan nan 11 11 12 nan nan nan nan nan nan nan nan nan nan nan nan nan
nan nan nan nan nan nan nan nan nan nan nan nan nan nan nan nan nan nan nan nan nan nan nan nan nan nan nan nan nan nan nan nan nan nan nan nan nan nan 19 20 20 19 24 23 27 29 30 29 29 29 30 29 29 29 28 27 28 28 31 30 28 29 30 31 31 nan nan nan nan nan 13 12 9 nan nan nan nan nan nan nan nan nan nan nan nan
nan nan nan nan nan nan nan nan nan nan nan nan nan nan nan nan nan nan nan nan nan nan nan nan nan nan nan nan nan nan nan nan nan nan nan nan nan nan nan nan nan nan nan 23 22 23 27 31 33 31 29 29 30 30 29 28 28 31 31 32 31 30 30 31 31 28 nan nan nan nan nan 13 12 15 nan nan nan nan nan nan nan nan nan nan nan
nan nan nan nan nan nan nan nan nan nan nan nan nan nan nan nan nan nan nan nan nan nan nan nan nan nan nan nan nan nan nan nan nan nan nan nan nan nan nan nan nan nan nan nan nan 26 26 nan 33 35 33 32 30 33 31 28 30 32 33 30 34 32 31 31 32 30 28 27 nan nan nan nan 14 14 13 13 nan nan 16 nan nan nan nan nan nan
nan nan nan nan nan nan nan nan nan nan nan nan nan nan nan nan nan nan nan nan nan nan nan nan nan nan nan nan nan nan nan nan nan nan nan nan nan nan nan nan nan nan nan nan nan nan nan nan nan nan 34 35 33 31 32 30 30 32 33 29 30 34 33 31 32 32 29 26 25 nan nan nan nan 19 15 15 nan nan nan nan nan nan nan nan nan
nan nan nan nan nan nan nan nan nan nan nan nan nan nan nan nan nan nan nan nan nan nan nan nan nan nan nan nan nan nan nan nan nan nan nan nan nan nan nan nan nan nan nan nan nan nan nan nan nan nan 29 33 31 30 28 28 25 27 34 31 28 33 35 33 32 32 30 26 25 nan nan nan nan nan nan 17 nan nan nan nan nan nan nan nan nan
nan nan nan nan nan nan nan nan nan nan nan nan nan nan nan nan nan nan nan nan nan nan nan nan nan nan nan nan nan nan nan nan nan nan nan nan nan nan nan nan nan nan nan nan nan nan nan nan nan nan nan 33 31 36 33 27 25 24 35 33 29 29 33 33 32 32 29 26 26 27 25 nan nan nan nan nan nan nan nan nan nan nan nan nan nan
nan nan nan nan nan nan nan nan nan nan nan nan nan nan nan nan nan nan nan nan nan nan nan nan nan nan nan nan nan nan nan nan nan nan nan nan nan nan nan nan nan nan nan nan nan nan nan nan nan nan nan nan nan 32 34 36 28 26 28 29 29 30 32 32 31 31 30 27 27 27 27 nan nan nan nan nan nan nan nan nan nan nan nan nan nan
nan nan nan nan nan nan nan nan nan nan nan nan nan nan nan nan nan nan nan nan nan nan nan nan nan nan nan nan nan nan nan nan nan nan nan nan nan nan nan nan nan nan nan nan nan nan nan nan nan nan nan nan nan nan 31 31 35 34 32 30 29 29 33 35 32 30 29 28 28 29 29 26 nan nan nan nan nan nan nan nan nan nan nan nan nan
nan nan nan nan nan nan nan nan nan nan nan nan nan nan nan nan nan nan nan nan nan nan nan nan nan nan nan nan nan nan nan nan nan nan nan nan nan nan nan nan nan nan nan nan nan nan nan nan nan nan nan nan nan nan nan nan 34 36 35 35 33 29 31 34 34 32 30 29 28 30 31 28 25 nan nan nan nan nan nan nan nan nan nan nan nan
nan nan nan nan nan nan nan nan nan nan nan nan nan nan nan nan nan nan nan nan nan nan nan nan nan nan nan nan nan nan nan nan nan nan nan nan nan nan nan nan nan nan nan nan nan nan nan nan nan nan nan nan nan nan nan nan nan nan 37 36 36 31 33 31 33 33 31 31 29 29 31 30 25 28 nan nan nan nan nan nan nan nan nan nan nan
nan nan nan nan nan nan nan nan nan nan nan nan nan nan nan nan nan nan nan nan nan nan nan nan nan nan nan nan nan nan nan nan nan nan nan nan nan nan nan nan nan nan nan nan nan nan nan nan nan nan nan nan nan nan nan nan nan 39 40 38 37 37 36 33 31 31 30 30 30 29 29 29 27 25 29 nan nan nan nan nan nan nan nan nan nan
nan nan nan nan nan nan nan nan nan nan nan nan nan nan nan nan nan nan nan nan nan nan nan nan nan nan nan nan nan nan nan nan nan nan nan nan nan nan nan nan nan nan nan nan nan nan nan nan nan nan nan nan nan nan nan nan nan nan nan 38 39 39 38 35 33 31 32 30 30 30 29 28 28 26 26 31 nan nan nan nan nan nan nan nan nan
nan nan nan nan nan nan nan nan nan nan nan nan nan nan nan nan nan nan nan nan nan nan nan nan nan nan nan nan nan nan nan nan nan nan nan nan nan nan nan nan nan nan nan nan nan nan nan nan nan nan nan nan nan nan nan nan nan nan nan nan 38 41 40 38 35 32 33 33 30 29 30 28 28 28 26 29 31 nan nan nan nan nan nan nan nan
nan nan nan nan nan nan nan nan nan nan nan nan nan nan nan nan nan nan nan nan nan nan nan nan nan nan nan nan nan nan nan nan nan nan nan nan nan nan nan nan nan nan nan nan nan nan nan nan nan nan nan nan nan nan nan nan nan nan nan nan 40 38 39 39 36 33 32 34 32 30 30 29 28 29 28 28 32 nan nan nan nan nan nan nan nan
nan nan nan nan nan nan nan nan nan nan nan nan nan nan nan nan nan nan nan nan nan nan nan nan nan nan nan nan nan nan nan nan nan nan nan nan nan nan nan nan nan nan nan nan nan nan nan nan nan nan nan nan nan nan nan nan nan nan nan nan nan 38 39 38 38 36 31 32 33 32 30 30 29 28 28 26 30 35 nan nan nan nan nan nan nan
nan nan nan nan nan nan nan nan nan nan nan nan nan nan nan nan nan nan nan nan nan nan nan nan nan nan nan nan nan nan nan nan nan nan nan nan nan nan nan nan nan nan nan nan nan nan nan nan nan nan nan nan nan nan nan nan nan nan nan nan nan nan 41 39 37 37 37 36 35 34 31 31 30 30 27 24 25 32 nan nan nan nan nan nan nan
nan nan nan nan nan nan nan nan nan nan nan nan nan nan nan nan nan nan nan nan nan nan nan nan nan nan nan nan nan nan nan nan nan nan nan nan nan nan nan nan nan nan nan nan nan nan nan nan nan nan nan nan nan nan nan nan nan nan nan nan nan nan nan nan 37 37 38 36 34 33 35 35 33 32 28 26 23 28 34 nan nan nan nan nan nan
nan nan nan nan nan nan nan nan nan nan nan nan nan nan nan nan nan nan nan nan nan nan nan nan nan nan nan nan nan nan nan nan nan nan nan nan nan nan nan nan nan nan nan nan nan nan nan nan nan nan nan nan nan nan nan nan nan nan nan nan nan nan nan nan nan 35 39 39 34 35 nan 34 35 33 32 29 25 24 33 nan nan nan nan nan nan
nan nan nan nan nan nan nan nan nan nan nan nan nan nan nan nan nan nan nan nan nan nan nan nan nan nan nan nan nan nan nan nan nan nan nan nan nan nan nan nan nan nan nan nan nan nan nan nan nan nan nan nan nan nan nan nan nan nan nan nan nan nan nan nan nan nan 37 37 35 34 36 37 37 36 35 32 nan 22 nan nan nan nan nan nan nan
nan nan nan nan nan nan nan nan nan nan nan nan nan nan nan nan nan nan nan nan nan nan nan nan nan nan nan nan nan nan nan nan nan nan nan nan nan nan nan nan nan nan nan nan nan nan nan nan nan nan nan nan nan nan nan nan nan nan nan nan nan nan nan nan nan nan nan 38 36 34 35 38 40 36 35 32 29 24 22 nan nan nan nan nan nan
nan nan nan nan nan nan nan nan nan nan nan nan nan nan nan nan nan nan nan nan nan nan nan nan nan nan nan nan nan nan nan nan nan nan nan nan nan nan nan nan nan nan nan nan nan nan nan nan nan nan nan nan nan nan nan nan nan nan nan nan nan nan nan nan nan nan nan 41 37 35 34 38 40 36 34 nan nan 31 24 nan nan nan nan nan nan
nan nan nan nan nan nan nan nan nan nan nan nan nan nan nan nan nan nan nan nan nan nan nan nan nan nan nan nan nan nan nan nan nan nan nan nan nan nan nan nan nan nan nan nan nan nan nan nan nan nan nan nan nan nan nan nan nan nan nan nan nan nan nan nan nan nan nan nan 39 38 34 38 38 35 33 32 nan 31 28 23 nan nan nan nan nan
nan nan nan nan nan nan nan nan nan nan nan nan nan nan nan nan nan nan nan nan nan nan nan nan nan nan nan nan nan nan nan nan nan nan nan nan nan nan nan nan nan nan nan nan nan nan nan nan nan nan nan nan nan nan nan nan nan nan nan nan nan nan nan nan nan nan nan nan nan 37 34 36 40 35 30 nan 34 32 29 25 24 23 nan nan nan
nan nan nan nan nan nan nan nan nan nan nan nan nan nan nan nan nan nan nan nan nan nan nan nan nan nan nan nan nan nan nan nan nan nan nan nan nan nan nan nan nan nan nan nan nan nan nan nan nan nan nan nan nan nan nan nan nan nan nan nan nan nan nan nan nan nan nan nan nan nan 36 36 38 36 31 nan nan 33 30 29 27 24 24 nan nan
nan nan nan nan nan nan nan nan nan nan nan nan nan nan nan nan nan nan nan nan nan nan nan nan nan nan nan nan nan nan nan nan nan nan nan nan nan nan nan nan nan nan nan nan nan nan nan nan nan nan nan nan nan nan nan nan nan nan nan nan nan nan nan nan nan nan nan nan nan nan nan 37 39 nan nan nan nan nan 31 30 nan nan 26 26 nan
nan nan nan nan nan nan nan nan nan nan nan nan nan nan nan nan nan nan nan nan nan nan nan nan nan nan nan nan nan nan nan nan nan nan nan nan nan nan nan nan nan nan nan nan nan nan nan nan nan nan nan nan nan nan nan nan nan nan nan nan nan nan nan nan nan nan nan nan nan nan nan nan 39 35 nan nan nan nan nan nan nan nan nan 26 28
nan nan nan nan nan nan nan nan nan nan nan nan nan nan nan nan nan nan nan nan nan nan nan nan nan nan nan nan nan nan nan nan nan nan nan nan nan nan nan nan nan nan nan nan nan nan nan nan nan nan nan nan nan nan nan nan nan nan nan nan nan nan nan nan nan nan nan nan nan 36 37 36 39 37 36 36 35 nan nan nan nan nan nan 27 27
nan nan nan nan nan nan nan nan nan nan nan nan nan nan nan nan nan nan nan nan nan nan nan nan nan nan nan nan nan nan nan nan nan nan nan nan nan nan nan nan nan nan nan nan nan nan nan nan nan nan nan nan nan nan nan nan nan nan nan nan nan nan nan nan nan nan nan nan 49 44 37 39 41 39 41 nan nan nan nan nan nan nan nan nan 24
nan nan nan nan nan nan nan nan nan nan nan nan nan nan nan nan nan nan nan nan nan nan nan nan nan nan nan nan nan nan nan nan nan nan nan nan nan nan nan nan nan nan nan nan nan nan nan nan nan nan nan nan nan nan nan nan nan nan nan nan nan nan nan nan nan nan nan nan nan 45 39 37 39 37 41 39 nan nan nan nan nan nan nan nan nan
Wind_Direction
279 293 319 292 272 276 281 298 332 323 347 329 328 332 341 338 339 345 355 358 357 357 351 nan 350 346 351 357 357 355 348 346 344 336 333 326 334 332 335 331 333 334 336 337 328 317 321 327 nan nan nan nan nan nan nan 334 340 nan nan nan nan nan nan nan nan nan nan nan nan nan nan nan nan nan nan nan nan nan 285 287 288 286 286 285 281
288 295 294 315 305 292 297 318 340 332 344 337 335 334 335 340 341 345 355 344 343 346 344 347 nan nan nan 349 348 352 354 344 340 339 339 333 333 332 339 335 333 334 335 339 337 322 319 326 330 329 nan nan nan nan nan 332 344 nan nan nan nan nan nan nan nan nan nan nan nan nan nan nan nan nan nan nan nan nan 295 292 290 286 287 286 284
296 298 298 303 300 292 311 328 333 327 326 336 332 338 342 340 341 337 337 340 338 338 344 341 344 354 348 349 345 346 348 344 338 338 338 340 332 334 339 341 337 336 336 340 343 332 321 327 331 331 333 331 nan nan nan nan nan nan nan nan nan nan nan nan nan nan nan nan nan nan nan nan nan nan nan nan nan nan nan 296 293 289 287 286 285
300 305 311 304 300 308 331 331 328 334 330 334 336 337 336 340 336 334 339 339 334 331 332 336 340 345 340 346 342 336 342 330 342 345 342 340 338 336 337 341 343 343 343 343 346 339 329 331 334 336 342 331 332 331 nan nan nan nan nan nan nan nan nan nan nan nan nan nan nan nan nan nan nan nan nan nan nan nan nan 300 296 293 291 288 287
301 305 307 307 333 315 323 313 327 329 330 335 338 337 341 336 328 326 327 331 328 333 334 333 333 336 337 338 336 337 332 335 340 341 346 344 343 335 336 336 340 349 349 347 349 345 337 332 338 341 348 340 334 335 335 nan nan nan nan nan nan nan nan nan nan nan nan nan nan nan nan nan nan nan nan nan nan nan nan nan 298 297 296 294 292
292 284 285 300 307 312 323 326 321 317 323 331 332 331 327 329 324 327 327 322 325 326 325 328 332 331 330 336 328 328 330 336 334 343 343 338 339 342 336 335 340 344 346 352 350 349 344 329 335 342 345 345 338 337 341 336 338 nan nan nan nan nan nan nan nan nan nan nan nan nan nan nan nan nan nan nan nan nan nan nan nan nan 294 296 nan
285 280 280 297 305 309 304 308 307 312 324 322 322 322 327 318 319 316 314 313 316 319 321 323 323 325 322 317 321 324 326 326 330 336 335 338 342 339 331 342 339 340 346 339 345 353 350 339 334 336 344 343 342 340 343 342 341 332 nan nan nan nan nan nan nan nan nan nan nan nan nan nan nan nan nan nan nan nan nan nan nan nan nan nan 296
284 284 273 262 271 295 302 299 295 316 310 310 318 322 318 323 320 319 317 316 314 314 314 316 317 319 323 319 322 326 327 329 329 332 329 326 327 340 334 340 341 337 341 341 336 341 355 349 338 334 335 338 344 339 343 345 347 342 331 nan nan nan nan nan nan nan nan nan nan nan nan nan nan nan nan nan nan nan nan nan nan nan nan nan nan
280 278 270 266 272 273 283 288 297 299 300 308 319 319 312 312 314 315 318 317 313 313 311 310 312 316 318 321 324 324 325 326 324 323 323 327 330 331 342 332 337 331 333 340 339 333 343 351 342 337 334 333 328 324 333 339 346 346 337 331 nan nan nan nan nan nan nan nan nan nan nan nan nan nan nan nan nan nan nan nan nan nan nan nan nan
272 271 284 286 270 266 271 278 293 293 294 303 306 319 318 315 317 317 314 316 318 313 312 313 315 314 315 316 318 321 324 324 325 325 326 328 330 328 324 323 329 340 340 336 337 334 331 338 347 341 337 331 329 321 325 334 337 340 334 322 327 nan nan nan nan nan nan nan nan nan nan nan nan nan nan nan nan nan nan nan nan nan nan nan nan
256 263 263 271 279 282 298 296 295 294 305 318 323 315 307 306 312 314 314 318 320 318 320 319 315 314 316 318 318 321 322 324 324 322 323 324 325 327 326 330 336 328 332 328 322 330 335 326 324 321 318 332 331 326 323 328 324 326 320 322 324 nan nan nan nan nan nan nan nan nan nan nan nan nan nan nan nan nan nan nan nan nan nan nan nan
273 270 265 263 280 291 291 292 296 321 319 319 315 311 309 311 308 311 316 320 321 322 317 314 320 324 322 320 322 324 325 323 320 321 320 320 322 323 327 326 326 327 320 324 329 320 320 325 322 317 314 317 329 329 330 326 315 307 318 317 320 nan nan nan nan nan nan nan nan nan nan nan nan nan nan nan nan nan nan nan nan nan nan nan nan
276 276 279 282 285 292 297 312 316 309 306 308 313 310 310 307 309 316 319 319 320 317 317 317 321 323 318 316 313 316 325 324 324 324 321 322 323 322 321 322 318 320 321 311 314 317 321 331 325 320 316 307 308 326 326 324 319 315 323 308 310 313 nan nan nan nan nan nan nan nan nan nan nan nan nan nan nan nan nan nan nan nan nan nan nan
265 271 269 269 272 282 288 291 293 293 299 302 304 305 304 309 310 312 314 317 319 315 315 309 316 310 306 304 312 316 318 314 319 322 323 324 324 321 322 327 324 317 316 314 318 307 320 328 318 321 314 305 296 300 308 315 316 322 319 311 298 nan 309 nan nan nan nan nan nan nan nan nan nan nan nan nan nan nan nan nan nan nan nan nan nan
253 262 270 270 276 278 285 289 291 291 295 300 300 304 303 307 310 313 317 317 319 316 313 312 317 310 317 319 307 299 307 307 309 315 320 323 322 324 326 325 324 318 313 313 312 316 320 324 324 326 319 307 299 293 302 309 311 317 321 314 307 nan nan nan nan nan nan nan nan nan nan nan nan nan nan nan nan nan nan nan nan nan nan nan nan
254 255 263 263 266 273 275 279 282 284 289 295 298 295 300 302 298 302 307 308 307 311 311 309 309 306 307 305 314 312 311 308 298 308 321 320 323 329 323 322 320 318 314 316 316 314 316 319 320 319 313 305 307 310 306 296 310 317 318 320 nan nan nan 300 nan nan nan nan nan nan nan nan nan nan nan nan nan nan nan nan nan nan nan nan nan
255 258 260 262 266 270 275 279 282 286 291 294 297 293 293 295 292 298 296 303 305 310 313 308 311 313 309 307 308 311 305 305 294 312 310 310 322 325 322 323 325 323 322 321 317 318 316 318 319 319 321 319 319 312 310 306 303 303 308 315 nan nan nan nan nan nan nan nan nan nan nan nan nan nan nan nan nan nan nan nan nan nan nan nan nan
258 nan 261 262 264 265 268 275 281 284 287 291 291 291 288 286 287 292 295 298 304 308 307 305 300 307 311 314 316 316 311 308 307 311 307 316 318 318 323 323 324 324 324 323 321 319 318 320 320 320 316 315 316 315 311 307 303 300 302 308 323 nan nan nan nan nan nan nan nan 315 313 nan nan nan nan nan nan nan nan nan nan nan nan nan nan
nan nan nan nan nan nan nan nan nan nan nan nan nan nan nan nan nan 292 293 295 295 300 297 299 298 301 296 307 317 321 323 315 311 311 309 308 308 310 315 321 321 322 325 327 328 324 320 318 317 318 317 313 315 315 314 314 312 306 312 314 321 322 319 nan nan nan 297 nan nan nan nan nan nan nan nan nan nan nan nan nan nan nan nan nan nan
nan nan nan nan nan nan nan nan nan nan nan nan nan nan nan nan nan nan nan 295 294 293 292 293 294 300 295 298 295 305 312 319 318 315 316 309 303 308 313 311 319 323 324 324 324 325 324 321 320 318 316 316 315 314 316 319 316 310 304 310 311 317 321 nan nan nan nan 299 nan nan 318 nan nan nan nan nan nan nan nan nan nan nan nan nan nan
nan nan nan nan nan nan nan nan nan nan nan nan nan nan nan nan nan nan nan nan nan nan nan nan nan nan nan nan nan 297 296 296 300 305 304 306 310 299 296 307 314 318 319 319 322 323 325 324 322 320 318 319 319 318 318 320 320 317 312 312 303 308 316 322 nan nan nan nan 284 nan 306 322 319 nan nan nan nan nan nan nan nan nan nan nan nan
nan nan nan nan nan nan nan nan nan nan nan nan nan nan nan nan nan nan nan nan nan nan nan nan nan nan nan nan nan nan nan nan nan nan nan 298 300 296 295 290 296 302 308 314 315 315 316 317 314 317 318 317 318 319 318 320 319 316 316 321 315 310 313 318 nan nan nan nan nan 261 288 294 nan nan nan nan nan nan nan nan nan nan nan nan nan
nan nan nan nan nan nan nan nan nan nan nan nan nan nan nan nan nan nan nan nan nan nan nan nan nan nan nan nan nan nan nan nan nan nan nan nan nan nan 293 294 292 292 294 294 306 313 315 315 315 316 317 319 319 318 318 319 322 322 326 324 322 316 315 313 313 nan nan nan nan nan 263 281 291 nan nan nan nan nan nan nan nan nan nan nan nan
nan nan nan nan nan nan nan nan nan nan nan nan nan nan nan nan nan nan nan nan nan nan nan nan nan nan nan nan nan nan nan nan nan nan nan nan nan nan nan nan nan nan nan 294 293 300 305 311 315 315 316 314 317 317 319 320 319 330 326 330 329 323 318 315 313 312 nan nan nan nan nan 265 269 279 nan nan nan nan nan nan nan nan nan nan nan
nan nan nan nan nan nan nan nan nan nan nan nan nan nan nan nan nan nan nan nan nan nan nan nan nan nan nan nan nan nan nan nan nan nan nan nan nan nan nan nan nan nan nan nan nan 295 294 nan 301 308 310 313 314 313 315 317 316 322 329 326 334 330 324 320 317 312 313 318 nan nan nan nan 261 272 287 285 nan nan 299 nan nan nan nan nan nan
nan nan nan nan nan nan nan nan nan nan nan nan nan nan nan nan nan nan nan nan nan nan nan nan nan nan nan nan nan nan nan nan nan nan nan nan nan nan nan nan nan nan nan nan nan nan nan nan nan nan 304 307 310 311 312 314 313 319 325 323 325 329 327 325 323 318 312 315 317 nan nan nan nan 259 262 265 nan nan nan nan nan nan nan nan nan
nan nan nan nan nan nan nan nan nan nan nan nan nan nan nan nan nan nan nan nan nan nan nan nan nan nan nan nan nan nan nan nan nan nan nan nan nan nan nan nan nan nan nan nan nan nan nan nan nan nan 286 295 299 296 293 294 301 316 318 317 312 324 324 325 322 321 314 310 318 nan nan nan nan nan nan 261 nan nan nan nan nan nan nan nan nan
nan nan nan nan nan nan nan nan nan nan nan nan nan nan nan nan nan nan nan nan nan nan nan nan nan nan nan nan nan nan nan nan nan nan nan nan nan nan nan nan nan nan nan nan nan nan nan nan nan nan nan 278 280 287 294 291 293 315 313 306 307 307 322 325 325 321 317 309 312 315 296 nan nan nan nan nan nan nan nan nan nan nan nan nan nan
nan nan nan nan nan nan nan nan nan nan nan nan nan nan nan nan nan nan nan nan nan nan nan nan nan nan nan nan nan nan nan nan nan nan nan nan nan nan nan nan nan nan nan nan nan nan nan nan nan nan nan nan nan 274 284 296 296 285 289 296 303 303 312 324 324 322 320 311 302 309 308 nan nan nan nan nan nan nan nan nan nan nan nan nan nan
nan nan nan nan nan nan nan nan nan nan nan nan nan nan nan nan nan nan nan nan nan nan nan nan nan nan nan nan nan nan nan nan nan nan nan nan nan nan nan nan nan nan nan nan nan nan nan nan nan nan nan nan nan nan 275 280 288 289 288 291 295 301 311 320 324 323 321 315 302 300 310 298 nan nan nan nan nan nan nan nan nan nan nan nan nan
nan nan nan nan nan nan nan nan nan nan nan nan nan nan nan nan nan nan nan nan nan nan nan nan nan nan nan nan nan nan nan nan nan nan nan nan nan nan nan nan nan nan nan nan nan nan nan nan nan nan nan nan nan nan nan nan 277 288 292 294 294 300 311 309 319 321 321 321 312 301 306 305 280 nan nan nan nan nan nan nan nan nan nan nan nan
nan nan nan nan nan nan nan nan nan nan nan nan nan nan nan nan nan nan nan nan nan nan nan nan nan nan nan nan nan nan nan nan nan nan nan nan nan nan nan nan nan nan nan nan nan nan nan nan nan nan nan nan nan nan nan nan nan nan 290 292 294 299 297 295 308 318 320 322 321 313 314 312 294 273 nan nan nan nan nan nan nan nan nan nan nan
nan nan nan nan nan nan nan nan nan nan nan nan nan nan nan nan nan nan nan nan nan nan nan nan nan nan nan nan nan nan nan nan nan nan nan nan nan nan nan nan nan nan nan nan nan nan nan nan nan nan nan nan nan nan nan nan nan 275 284 287 289 289 287 288 290 305 315 317 320 320 316 313 302 282 275 nan nan nan nan nan nan nan nan nan nan
nan nan nan nan nan nan nan nan nan nan nan nan nan nan nan nan nan nan nan nan nan nan nan nan nan nan nan nan nan nan nan nan nan nan nan nan nan nan nan nan nan nan nan nan nan nan nan nan nan nan nan nan nan nan nan nan nan nan nan 279 284 285 285 286 286 288 307 311 315 318 317 315 308 296 278 273 nan nan nan nan nan nan nan nan nan
nan nan nan nan nan nan nan nan nan nan nan nan nan nan nan nan nan nan nan nan nan nan nan nan nan nan nan nan nan nan nan nan nan nan nan nan nan nan nan nan nan nan nan nan nan nan nan nan nan nan nan nan nan nan nan nan nan nan nan nan 277 282 284 285 283 281 294 305 310 313 316 314 309 303 287 267 265 nan nan nan nan nan nan nan nan
nan nan nan nan nan nan nan nan nan nan nan nan nan nan nan nan nan nan nan nan nan nan nan nan nan nan nan nan nan nan nan nan nan nan nan nan nan nan nan nan nan nan nan nan nan nan nan nan nan nan nan nan nan nan nan nan nan nan nan nan 273 275 278 280 282 279 283 298 304 308 312 313 308 307 300 275 257 nan nan nan nan nan nan nan nan
nan nan nan nan nan nan nan nan nan nan nan nan nan nan nan nan nan nan nan nan nan nan nan nan nan nan nan nan nan nan nan nan nan nan nan nan nan nan nan nan nan nan nan nan nan nan nan nan nan nan nan nan nan nan nan nan nan nan nan nan nan 265 271 274 275 277 280 288 297 302 305 311 309 306 306 289 263 257 nan nan nan nan nan nan nan
nan nan nan nan nan nan nan nan nan nan nan nan nan nan nan nan nan nan nan nan nan nan nan nan nan nan nan nan nan nan nan nan nan nan nan nan nan nan nan nan nan nan nan nan nan nan nan nan nan nan nan nan nan nan nan nan nan nan nan nan nan nan 263 265 270 272 271 271 274 282 292 301 307 306 307 301 274 262 nan nan nan nan nan nan nan
nan nan nan nan nan nan nan nan nan nan nan nan nan nan nan nan nan nan nan nan nan nan nan nan nan nan nan nan nan nan nan nan nan nan nan nan nan nan nan nan nan nan nan nan nan nan nan nan nan nan nan nan nan nan nan nan nan nan nan nan nan nan nan nan 258 267 273 272 276 288 289 289 297 295 300 308 292 264 260 nan nan nan nan nan nan
nan nan nan nan nan nan nan nan nan nan nan nan nan nan nan nan nan nan nan nan nan nan nan nan nan nan nan nan nan nan nan nan nan nan nan nan nan nan nan nan nan nan nan nan nan nan nan nan nan nan nan nan nan nan nan nan nan nan nan nan nan nan nan nan nan 258 269 271 269 271 nan 286 292 299 301 308 309 276 259 nan nan nan nan nan nan
nan nan nan nan nan nan nan nan nan nan nan nan nan nan nan nan nan nan nan nan nan nan nan nan nan nan nan nan nan nan nan nan nan nan nan nan nan nan nan nan nan nan nan nan nan nan nan nan nan nan nan nan nan nan nan nan nan nan nan nan nan nan nan nan nan nan 259 269 270 271 274 277 279 282 281 282 nan 297 nan nan nan nan nan nan nan
nan nan nan nan nan nan nan nan nan nan nan nan nan nan nan nan nan nan nan nan nan nan nan nan nan nan nan nan nan nan nan nan nan nan nan nan nan nan nan nan nan nan nan nan nan nan nan nan nan nan nan nan nan nan nan nan nan nan nan nan nan nan nan nan nan nan nan 261 267 269 270 272 275 278 281 283 284 293 273 nan nan nan nan nan nan
nan nan nan nan nan nan nan nan nan nan nan nan nan nan nan nan nan nan nan nan nan nan nan nan nan nan nan nan nan nan nan nan nan nan nan nan nan nan nan nan nan nan nan nan nan nan nan nan nan nan nan nan nan nan nan nan nan nan nan nan nan nan nan nan nan nan nan 257 262 263 263 268 271 273 278 nan nan 282 282 nan nan nan nan nan nan
nan nan nan nan nan nan nan nan nan nan nan nan nan nan nan nan nan nan nan nan nan nan nan nan nan nan nan nan nan nan nan nan nan nan nan nan nan nan nan nan nan nan nan nan nan nan nan nan nan nan nan nan nan nan nan nan nan nan nan nan nan nan nan nan nan nan nan nan 249 258 257 260 268 272 274 281 nan 283 285 296 nan nan nan nan nan
nan nan nan nan nan nan nan nan nan nan nan nan nan nan nan nan nan nan nan nan nan nan nan nan nan nan nan nan nan nan nan nan nan nan nan nan nan nan nan nan nan nan nan nan nan nan nan nan nan nan nan nan nan nan nan nan nan nan nan nan nan nan nan nan nan nan nan nan nan 249 257 259 268 270 269 nan 275 279 282 287 295 304 nan nan nan
nan nan nan nan nan nan nan nan nan nan nan nan nan nan nan nan nan nan nan nan nan nan nan nan nan nan nan nan nan nan nan nan nan nan nan nan nan nan nan nan nan nan nan nan nan nan nan nan nan nan nan nan nan nan nan nan nan nan nan nan nan nan nan nan nan nan nan nan nan nan 247 257 267 268 268 nan nan 275 279 288 296 296 304 nan nan
nan nan nan nan nan nan nan nan nan nan nan nan nan nan nan nan nan nan nan nan nan nan nan nan nan nan nan nan nan nan nan nan nan nan nan nan nan nan nan nan nan nan nan nan nan nan nan nan nan nan nan nan nan nan nan nan nan nan nan nan nan nan nan nan nan nan nan nan nan nan nan 251 260 nan nan nan nan nan 274 283 nan nan 301 296 nan
nan nan nan nan nan nan nan nan nan nan nan nan nan nan nan nan nan nan nan nan nan nan nan nan nan nan nan nan nan nan nan nan nan nan nan nan nan nan nan nan nan nan nan nan nan nan nan nan nan nan nan nan nan nan nan nan nan nan nan nan nan nan nan nan nan nan nan nan nan nan nan nan 256 262 nan nan nan nan nan nan nan nan nan 296 274
nan nan nan nan nan nan nan nan nan nan nan nan nan nan nan nan nan nan nan nan nan nan nan nan nan nan nan nan nan nan nan nan nan nan nan nan nan nan nan nan nan nan nan nan nan nan nan nan nan nan nan nan nan nan nan nan nan nan nan nan nan nan nan nan nan nan nan nan nan 254 250 247 253 257 257 260 264 nan nan nan nan nan nan 303 281
nan nan nan nan nan nan nan nan nan nan nan nan nan nan nan nan nan nan nan nan nan nan nan nan nan nan nan nan nan nan nan nan nan nan nan nan nan nan nan nan nan nan nan nan nan nan nan nan nan nan nan nan nan nan nan nan nan nan nan nan nan nan nan nan nan nan nan nan 232 224 244 250 252 253 253 nan nan nan nan nan nan nan nan nan 286
nan nan nan nan nan nan nan nan nan nan nan nan nan nan nan nan nan nan nan nan nan nan nan nan nan nan nan nan nan nan nan nan nan nan nan nan nan nan nan nan nan nan nan nan nan nan nan nan nan nan nan nan nan nan nan nan nan nan nan nan nan nan nan nan nan nan nan nan nan 222 232 246 252 250 253 250 nan nan nan nan nan nan nan nan nan